WetterOnline ( http://www.wetteronline.de )

Wetter aktuell Darß/Zingst

Aktuelles Wetter: Barth (7m)

6-stündlich | Neueste Meldungen
Ortszeit Temperatur Wetter
Di, 17.07. 20:00 21.6° C bedeckt
Di, 17.07. 14:00 24.1° C wolkig
Di, 17.07. 8:00 19.0° C bedeckt
Di, 17.07. 2:00 13.1° C bedeckt
Mo, 16.07. 20:00 23.3° C fast wolkenlos
Mo, 16.07. 14:00 23.1° C wolkenlos
Mo, 16.07. 8:00 19.3° C wolkig
Mo, 16.07. 2:00 12.1° C Nebel
Ortszeit Temperatur Wetter
Di, 17.07. 23:00 19.5° C bewölkt
Di, 17.07. 22:50 19.5° C bewölkt
Di, 17.07. 22:40 19.6° C bedeckt
Di, 17.07. 22:30 18.6° C bewölkt
Di, 17.07. 22:20 18.6° C bewölkt
Di, 17.07. 22:10 18.7° C bewölkt
Di, 17.07. 22:00 19.2° C wolkig
Di, 17.07. 21:30 19.9° C bedeckt
Di, 17.07. 21:00 21.0° C bedeckt
Di, 17.07. 20:30 21.2° C bedeckt
Di, 17.07. 20:00 21.6° C bedeckt
Ortszeit Relative Feuchte Sichtweite
Di, 17.07. 20:00 73% 35 km
Di, 17.07. 14:00 61% 45 km
Di, 17.07. 8:00 98% 5.0 km
Di, 17.07. 2:00 100% 4.7 km
Mo, 16.07. 20:00 59% 40 km
Mo, 16.07. 14:00 64% -
Mo, 16.07. 8:00 82% 9 km
Mo, 16.07. 2:00 99% 100 m
Ortszeit Relative Feuchte Sichtweite
Di, 17.07. 23:00 85% 23 km
Di, 17.07. 22:50 85% -
Di, 17.07. 22:40 84% -
Di, 17.07. 22:30 88% 27 km
Di, 17.07. 22:20 88% -
Di, 17.07. 22:10 89% -
Di, 17.07. 22:00 87% 26 km
Di, 17.07. 21:30 83% 30 km
Di, 17.07. 21:00 75% 35 km
Di, 17.07. 20:30 75% 35 km
Di, 17.07. 20:00 73% 35 km
Ortszeit Niederschlagsmenge Niederschlagsart
Di, 17.07. 20:00 0.1 l/m2 in 12 Std. -
Di, 17.07. 14:00 0.1 l/m2 in 6 Std. Regen
Di, 17.07. 8:00 0.0 l/m2 in 12 Std. -
Di, 17.07. 2:00 0.0 l/m2 in 6 Std. -
Mo, 16.07. 20:00 0.0 l/m2 in 12 Std. -
Mo, 16.07. 14:00 0.1 l/m2 in 6 Std. -
Mo, 16.07. 8:00 0.0 l/m2 in 12 Std. -
Mo, 16.07. 2:00 0.0 l/m2 in 6 Std. -
Ortszeit Niederschlagsmenge Niederschlagsart
Di, 17.07. 23:00 0.0 l/m2 in 1 Std. -
Di, 17.07. 22:50 keine Meldung -
Di, 17.07. 22:40 keine Meldung -
Di, 17.07. 22:30 0.0 l/m2 in 1 Std. -
Di, 17.07. 22:20 keine Meldung -
Di, 17.07. 22:10 keine Meldung -
Di, 17.07. 22:00 0.0 l/m2 in 1 Std. -
Di, 17.07. 21:30 0.0 l/m2 in 1 Std. -
Di, 17.07. 21:00 0.0 l/m2 in 1 Std. -
Di, 17.07. 20:30 0.0 l/m2 in 1 Std. -
Di, 17.07. 20:00 0.0 l/m2 in 1 Std. -
Ortszeit Stärke Spitze Richtung
km/h Bft. km/h Grad Sektor
Di, 17.07. 20:00 7 2 25 40° NO
Di, 17.07. 14:00 11 2 18 350° N
Di, 17.07. 8:00 4 1 7 350° N
Di, 17.07. 2:00 2 1 11 200° S
Mo, 16.07. 20:00 7 2 22 10° N
Mo, 16.07. 14:00 13 3 20 20° N
Mo, 16.07. 8:00 11 2 20 340° N
Mo, 16.07. 2:00 2 1 13 160° S
Ortszeit Stärke Spitze Richtung
km/h Bft. km/h Grad Sektor
Di, 17.07. 23:00 9 2 15 310° NW
Di, 17.07. 22:50 9 2 - 310° NW
Di, 17.07. 22:40 7 2 - 330° NW
Di, 17.07. 22:30 7 2 11 330° NW
Di, 17.07. 22:20 7 2 - 330° NW
Di, 17.07. 22:10 4 1 - 290° W
Di, 17.07. 22:00 0 0 4 - -
Di, 17.07. 21:30 4 1 4 310° NW
Di, 17.07. 21:00 4 1 11 20° N
Di, 17.07. 20:30 6 1 9 70° O
Di, 17.07. 20:00 7 2 11 40° NO
Ortszeit Untergrenze Bedeckung Gattung
total tief tief mittel hoch
Di, 17.07. 20:00 3300 m 8/8 8/8 - - -
Di, 17.07. 14:00 2100 m 8/8 2/8 - - -
Di, 17.07. 8:00 4200 m 8/8 8/8 - - -
Di, 17.07. 2:00 3900 m 8/8 8/8 - - -
Mo, 16.07. 20:00 9000 m 1/8 0/8 - - -
Mo, 16.07. 14:00 - 0/8 0/8 - - -
Mo, 16.07. 8:00 6600 m 8/8 4/8 - - -
Mo, 16.07. 2:00 9000 m 0/8 0/8 - - -
Ortszeit Bedeckungsgrad in Achtel und Wolkenuntergrenze
Di, 17.07. 23:00 3(1500m) 4(2700m) 8(3300m)
Di, 17.07. 22:50 3(1500m) 4(2700m) 8(3300m)
Di, 17.07. 22:40 8(3300m) 8(3900m)
Di, 17.07. 22:30 7(2700m) 8(3600m)
Di, 17.07. 22:20 7(2700m) 8(3600m)
Di, 17.07. 22:10 5(2700m) 8(3600m)
Di, 17.07. 22:00 2(2400m) 4(3000m) 8(3600m)
Di, 17.07. 21:30 8(3000m)
Di, 17.07. 21:00 7(3300m) 8(3900m)
Di, 17.07. 20:30 8(3900m) 8(4500m)
Di, 17.07. 20:00 6(3300m) 8(3900m)
Ortszeit Luftdruck NN (hPa) Tendenz (hPa in 3 Std.)
Di, 17.07. 20:00 1012 - 0,3
Di, 17.07. 14:00 1013 - 0,4
Di, 17.07. 8:00 1013 + 0,4
Di, 17.07. 2:00 1013 - 0,2
Mo, 16.07. 20:00 1013 - 0,5
Mo, 16.07. 14:00 1015 - 0,3
Mo, 16.07. 8:00 1016 - 0,4
Mo, 16.07. 2:00 1017 - 0,1
Ortszeit Luftdruck NN (hPa) Tendenz (hPa in 3 Std.)
Di, 17.07. 23:00 1013 + 0,1
Di, 17.07. 22:50 1013 keine Meldung
Di, 17.07. 22:40 1013 keine Meldung
Di, 17.07. 22:30 1013 + 0,3
Di, 17.07. 22:20 1013 keine Meldung
Di, 17.07. 22:10 1013 keine Meldung
Di, 17.07. 22:00 1013 0,0
Di, 17.07. 21:30 1012 - 0,2
Di, 17.07. 21:00 1012 - 0,3
Di, 17.07. 20:30 1012 - 0,2
Di, 17.07. 20:00 1012 - 0,3
Ortszeit Schneehöhe (cm)
Di, 17.07. 20:00 -
Di, 17.07. 14:00 -
Di, 17.07. 8:00 -
Di, 17.07. 2:00 -
Mo, 16.07. 20:00 -
Mo, 16.07. 14:00 -
Mo, 16.07. 8:00 -
Mo, 16.07. 2:00 -
Ortszeit Schneehöhe (cm)
Di, 17.07. 23:00 -
Di, 17.07. 22:50 -
Di, 17.07. 22:40 -
Di, 17.07. 22:30 -
Di, 17.07. 22:20 -
Di, 17.07. 22:10 -
Di, 17.07. 22:00 -
Di, 17.07. 21:30 -
Di, 17.07. 21:00 -
Di, 17.07. 20:30 -
Di, 17.07. 20:00 -
Link zu dieser Seite / Seite empfehlen

Das Wetter in ...